Location: São Paulo
(23.5507°S, 46.6334°W)
Time: 15:13:29
(UTC-03:00)

SR - All Passes

Search period start: 18 February 2026 00:00
Search period end: 28 February 2026 00:00
Orbit: 574 x 847 km, 66.7° (Epoch: 17 February)

Date Brightness Start Highest point End Pass type
(mag) Time Alt. Az. Time Alt. Az. Time Alt. Az.
18 Feb - 01:12:02 10° SSE 01:14:48 15° ESE 01:17:28 10° E night (unlit)
18 Feb - 02:52:27 10° SW 02:56:30 31° WNW 03:00:18 10° N night (unlit)
18 Feb - 15:26:05 10° NNW 15:31:49 78° ENE 15:37:33 10° SSE daylight
18 Feb - 17:12:18 10° WSW 17:13:58 11° WSW 17:15:38 10° SW daylight
19 Feb - 01:57:05 10° SSW 02:01:44 80° ESE 02:06:02 10° NNE night (unlit)
19 Feb - 14:32:05 10° NNE 14:37:03 31° ENE 14:42:00 10° SE daylight
19 Feb - 16:13:49 10° WNW 16:18:38 27° WSW 16:23:26 10° S daylight
20 Feb - 01:02:49 10° S 01:06:42 26° ESE 01:10:21 10° ENE night (unlit)
20 Feb - 02:45:05 10° WSW 02:48:02 17° WNW 02:50:52 10° NNW night (unlit)
20 Feb - 13:40:38 10° ENE 13:42:25 11° ENE 13:44:11 10° E daylight
20 Feb - 15:17:51 10° NNW 15:23:34 66° WSW 15:29:16 10° SSE daylight
21 Feb - 01:48:55 10° SSW 01:53:24 55° WNW 01:57:35 10° N night (unlit)
21 Feb - 14:23:11 10° N 14:28:41 50° ENE 14:34:12 10° SE daylight
21 Feb - 16:06:51 10° W 16:10:33 17° WSW 16:14:15 10° SSW daylight
22 Feb - 00:54:05 10° S 00:58:31 45° ESE 01:02:39 10° NE night (unlit)
22 Feb - 13:29:58 10° NNE 13:33:59 20° ENE 13:38:00 10° ESE daylight
22 Feb - 15:09:58 10° NW 15:15:21 41° WSW 15:20:44 10° S daylight
23 Feb - 00:00:29 10° SSE 00:03:20 16° ESE 00:06:04 10° E night (unlit)
23 Feb - 01:41:03 10° SW 01:44:59 29° WNW 01:48:42 10° NNW night (unlit)
23 Feb - 14:14:38 10° NNW 14:20:23 81° ENE 14:26:07 10° SSE daylight
23 Feb - 16:01:24 10° WSW 16:02:33 11° SW 16:03:42 10° SW daylight
24 Feb - 00:45:38 10° SSW 00:50:14 84° ESE 00:54:31 10° NNE night (unlit)
24 Feb - 13:20:34 10° N 13:25:35 32° ENE 13:30:36 10° SE daylight
24 Feb - 15:02:29 10° WNW 15:07:12 26° WSW 15:11:55 10° S daylight
24 Feb - 23:51:18 10° S 23:55:12 27° ESE 23:58:54 10° ENE night (unlit)
25 Feb - 01:33:44 10° WSW 01:36:31 16° WNW 01:39:10 10° NW night (unlit)
25 Feb - 12:28:49 10° NE 12:30:57 12° ENE 12:33:04 10° E daylight
25 Feb - 14:06:26 10° NNW 14:12:07 63° WSW 14:17:47 10° SSE daylight
26 Feb - 00:37:28 10° SW 00:41:52 51° WNW 00:46:00 10° N night (unlit)
26 Feb - 13:11:40 10° N 13:17:14 52° ENE 13:22:46 10° SE daylight
26 Feb - 14:55:34 10° W 14:59:07 17° WSW 15:02:39 10° SSW daylight
26 Feb - 23:42:34 10° S 23:47:00 47° ESE 23:51:08 10° NE night (unlit)
27 Feb - 12:18:22 10° NNE 12:22:30 21° ENE 12:26:38 10° ESE daylight
27 Feb - 13:58:34 10° NW 14:03:54 39° WSW 14:09:12 10° S daylight
27 Feb - 22:48:54 10° SSE 22:51:50 17° ESE 22:54:39 10° E night (unlit)
